FW6165 Crownsville MD US current weather conditions

sailwx.info

Wind from 334 at 0 knots gusting 2

Air temperature 7.8° C
Dewpoint 7.5° C

Last reported at 2020-Jan-25 13:56 UTC.
Time now 2020-Jan-25 14:53 UTC

Location: N 39°04' W 077°05'.
View on Google Maps.

See reports from other nearby stations

  
Tides and Currents Weather Stations Pressure Air Temp Water Temp Dewpoint Dewpoint Depression Visibility Wind Speed Wind Dir Waves Ship Positions
date/time (UTC)wind fromknots sea level pressurealtimeterstation pressurevisibilityair tempwater tempwave heightnotes
2020-Jan-25 13:56 334 0 gusting 2 7.8
2020-Jan-25 13:36 028 1 gusting 5 7.8
2020-Jan-25 13:26 065 1 gusting 3 7.8
2020-Jan-25 13:16 009 0 gusting 5 7.8
2020-Jan-25 13:06 070 1 gusting 6 7.8
2020-Jan-25 12:56 074 2 gusting 6 7.8
2020-Jan-25 12:16 288 0 gusting 0 8.3
2020-Jan-25 12:06 272 8.3
2020-Jan-25 11:45 356 1 gusting 4 8.3
2020-Jan-25 11:35 070 2 gusting 3 8.3
2020-Jan-25 11:15 305 0 gusting 0 8.3
2020-Jan-25 10:55 272 8.3
2020-Jan-25 10:45 302 0 gusting 2 8.3
2020-Jan-25 10:15 038 0 gusting 2 8.3
2020-Jan-25 09:55 070 1 gusting 3 7.8
2020-Jan-25 09:35 127 0 gusting 1 7.8
2020-Jan-25 09:25 039 0 gusting 1 7.8
2020-Jan-25 09:15 103 0 gusting 0 7.8
2020-Jan-25 08:55 098 0 gusting 1 8.3
2020-Jan-25 08:45 086 0 gusting 1 8.3
2020-Jan-25 08:35 058 0 gusting 1 8.3
2020-Jan-25 08:25 082 8.3
2020-Jan-25 08:05 079 0 gusting 2 8.3
2020-Jan-25 07:55 058 0 gusting 2 8.3
2020-Jan-25 07:45 126 0 gusting 1 8.3
2020-Jan-25 07:35 158 0 gusting 2 8.3
2020-Jan-25 07:15 075 0 gusting 1 7.8
2020-Jan-25 07:05 028 7.8
2020-Jan-25 06:45 091 0 gusting 0 7.8
2020-Jan-25 06:35 084 0 gusting 1 7.8
2020-Jan-25 06:25 085 0 gusting 1 7.8
2020-Jan-25 06:15 091 0 gusting 0 7.8
2020-Jan-25 05:55 052 2 gusting 3 8.3
2020-Jan-25 05:45 075 1 gusting 3 8.3
2020-Jan-25 05:35 101 8.3
2020-Jan-25 05:15 348 8.3
2020-Jan-25 04:55 090 0 gusting 2 7.8
2020-Jan-25 04:45 109 0 gusting 1 7.8
2020-Jan-25 04:35 116 1 gusting 2 7.8
2020-Jan-25 04:25 098 1 gusting 2 7.8
2020-Jan-25 04:15 015 1 gusting 2 7.2
2020-Jan-25 03:55 097 1 gusting 2 7.2
2020-Jan-25 03:25 068 0 gusting 0 7.2
2020-Jan-25 02:54 071 7.2
2020-Jan-25 02:44 106 0 gusting 1 7.2
2020-Jan-25 02:24 355 7.2
2020-Jan-25 02:14 009 7.2
2020-Jan-25 02:03 360 7.8
2020-Jan-25 01:33 347 0 gusting 2 8.3
2020-Jan-25 00:43 081 0 gusting 1 8.3
2020-Jan-25 00:33 089 0 gusting 1 8.3
2020-Jan-25 00:13 078 1 gusting 2 8.9
2020-Jan-25 00:03 079 0 gusting 3 8.9
2020-Jan-24 23:53 099 0 gusting 3 8.9
2020-Jan-24 23:43 083 0 gusting 1 8.9
2020-Jan-24 23:33 086 0 gusting 0 8.9
2020-Jan-24 23:03 076 0 gusting 1 9.4
2020-Jan-24 22:53 095 0 gusting 2 9.4
2020-Jan-24 22:33 105 0 gusting 2 10.0
2020-Jan-24 22:23 078 1 gusting 5 10.0
2020-Jan-24 21:33 100 0 gusting 1 10.6
2020-Jan-24 21:23 150 0 gusting 2 10.6
2020-Jan-24 21:13 096 0 gusting 2 10.6
2020-Jan-24 20:53 057 0 gusting 1 10.6
2020-Jan-24 20:43 028 0 gusting 1 10.6
2020-Jan-24 20:23 145 0 gusting 1 10.0
2020-Jan-24 20:03 047 10.0
2020-Jan-24 19:53 039 0 gusting 1 10.0
2020-Jan-24 19:33 132 0 gusting 1 9.4
2020-Jan-24 19:23 091 9.4
2020-Jan-24 19:13 083 0 gusting 2 9.4
2020-Jan-24 18:53 001 0 gusting 2 9.4
2020-Jan-24 18:43 135 0 gusting 3 9.4
2020-Jan-24 18:33 332 2 gusting 4 8.9
2020-Jan-24 18:23 325 8.9
2020-Jan-24 18:13 012 0 gusting 2 8.9
2020-Jan-24 18:03 290 8.9
2020-Jan-24 17:53 340 0 gusting 2 8.3
2020-Jan-24 17:33 110 0 gusting 2 8.3
2020-Jan-24 17:13 108 0 gusting 2 8.3
2020-Jan-24 16:53 006 0 gusting 3 7.8
2020-Jan-24 16:43 096 0 gusting 2 7.2
2020-Jan-24 16:23 343 0 gusting 2 7.2
2020-Jan-24 16:13 097 0 gusting 3 7.2
2020-Jan-24 15:53 125 1 gusting 3 6.1
2020-Jan-24 15:43 019 0 gusting 2 6.1
2020-Jan-24 15:13 086 0 gusting 1 4.4
2020-Jan-24 15:03 104 3.9
2020-Jan-24 14:53 346 0 gusting 2 3.3
2020-Jan-24 14:43 331 2.8
2020-Jan-24 14:33 356 0 gusting 1 2.2
2020-Jan-24 14:23 329 0 gusting 1 1.1
2020-Jan-24 14:13 082 0.6
2020-Jan-24 13:53 082 -0.6
2020-Jan-24 13:43 082 -0.6
2020-Jan-24 12:52 082 -1.7
2020-Jan-24 12:42 082 -1.7
2020-Jan-24 12:32 082 -1.7
2020-Jan-24 12:22 082 -1.7
2020-Jan-24 12:12 082 -1.7
2020-Jan-24 11:52 082 -1.7
2020-Jan-24 11:32 082 -2.2
2020-Jan-24 11:12 082 -2.2
2020-Jan-24 11:02 082 -2.2
2020-Jan-24 10:52 082 -2.2
2020-Jan-24 10:42 082 -2.2
2020-Jan-24 10:22 082 -2.2
2020-Jan-24 09:42 082 -1.7
2020-Jan-24 09:32 082 -1.7
2020-Jan-24 09:22 082 -1.7
2020-Jan-24 09:12 082 -1.7
2020-Jan-24 09:02 082 -1.7
2020-Jan-24 08:52 082 -1.7
2020-Jan-24 08:42 082 -1.7
2020-Jan-24 08:22 082 -1.1
2020-Jan-24 08:12 082 -1.1
2020-Jan-24 08:02 082 -1.1
2020-Jan-24 07:52 082 -1.7
2020-Jan-24 07:32 082 -1.7
2020-Jan-24 07:12 082 -2.2
2020-Jan-24 07:02 082 -2.2
2020-Jan-24 06:52 082 -1.7
2020-Jan-24 06:32 082 -1.7
2020-Jan-24 06:12 082 -1.7
2020-Jan-24 06:02 082 -1.7
2020-Jan-24 05:42 084 -2.2
2020-Jan-24 05:32 082 -2.2
2020-Jan-24 05:22 084 -2.2
2020-Jan-24 05:02 084 -1.7
2020-Jan-24 04:22 084 -1.7
2020-Jan-24 04:12 082 -1.7
2020-Jan-24 04:02 084 -1.1
2020-Jan-24 03:52 082 -1.1
2020-Jan-24 03:42 084 -0.6
2020-Jan-24 03:32 083 -0.6
2020-Jan-24 03:12 082 -0.6
2020-Jan-24 02:42 083 -0.6
2020-Jan-24 01:52 083 -0.6
2020-Jan-24 01:42 083 -0.6
2020-Jan-24 01:22 084 -0.0
2020-Jan-24 01:12 083 -0.0
2020-Jan-24 01:02 084 -0.0
2020-Jan-24 00:22 082 -0.0
2020-Jan-24 00:11 082 -0.0
2020-Jan-24 00:01 082 0.6
2020-Jan-23 23:41 082 0.6
2020-Jan-23 23:31 082 1.1
2020-Jan-23 23:11 084 1.1
2020-Jan-23 23:01 084 1.7
2020-Jan-23 22:31 084 2.2
2020-Jan-23 22:21 084 2.8
2020-Jan-23 22:01 084 3.9
2020-Jan-23 21:51 083 3.9
2020-Jan-23 21:41 084 4.4
2020-Jan-23 21:21 086 5.0
2020-Jan-23 21:11 085 5.0
2020-Jan-23 21:01 084 5.0
2020-Jan-23 20:51 084 0 gusting 0 5.0
2020-Jan-23 20:41 084 5.0
2020-Jan-23 20:11 102 0 gusting 0 5.0
2020-Jan-23 20:01 269 5.0
2020-Jan-23 19:41 018 5.0
2020-Jan-23 19:31 089 0 gusting 0 5.0
2020-Jan-23 19:21 086 5.0
2020-Jan-23 19:11 131 5.0
2020-Jan-23 18:41 023 0 gusting 1 5.0
2020-Jan-23 18:31 341 0 gusting 1 5.0
2020-Jan-23 18:21 060 0 gusting 0 5.0
2020-Jan-23 18:11 026 0 gusting 1 5.0
2020-Jan-23 17:51 089 0 gusting 1 4.4
2020-Jan-23 17:30 325 4.4
2020-Jan-23 17:20 011 0 gusting 1 4.4
2020-Jan-23 16:30 061 3.3
2020-Jan-23 16:20 290 0 gusting 0 2.8
2020-Jan-23 15:50 310 1.7
2020-Jan-23 15:40 338 1.7
2020-Jan-23 15:00 096 -0.6
2020-Jan-23 14:50 096 -1.1
2020-Jan-23 14:30 096 -1.7
2020-Jan-23 14:09 096 -3.3